| time (UTC) | temp F | wind direction | speed knots | gust knots | rain 1hr in | rain 24hr in | rain mn in | humidity % | barometer mb |
| 20260509034558 | 54 | 287 | 3.5 | 15.6 | 0.00 | 0.00 | 0.00 | 54 | 1007.9 |
| 20260509033044 | 55 | 196 | 3.5 | 8.7 | 0.00 | 0.00 | 0.00 | 54 | 1007.8 |
| 20260509031547 | 55 | 191 | 4.3 | 10.4 | 0.00 | 0.00 | 0.00 | 56 | 1007.6 |
| 20260509030035 | 55 | 249 | 3.5 | 9.6 | 0.00 | 0.00 | 0.00 | 56 | 1007.6 |
| 20260509024531 | 56 | 256 | 2.6 | 9.6 | 0.00 | 0.00 | 0.00 | 55 | 1007.5 |
| 20260509023031 | 57 | 302 | 3.5 | 10.4 | 0.00 | 0.00 | 0.00 | 54 | 1007.4 |
| 20260509021524 | 58 | 346 | 2.6 | 12.2 | 0.00 | 0.00 | 0.00 | 51 | 1007.4 |
| 20260509020020 | 62 | 284 | 2.6 | 8.7 | 0.00 | 0.00 | 0.00 | 46 | 1007.4 |
| 20260509014516 | 63 | 233 | 0.9 | 7.8 | 0.00 | 0.00 | 0.00 | 43 | 1007.5 |
| 20260509013032 | 63 | 281 | 2.6 | 7.8 | 0.00 | 0.00 | 0.00 | 40 | 1007.6 |
| 20260509011508 | 65 | 244 | 1.7 | 9.6 | 0.00 | 0.00 | 0.00 | 39 | 1007.6 |
| 20260509010004 | 65 | 201 | 1.7 | 10.4 | 0.00 | 0.00 | 0.00 | 36 | 1007.7 |
| 20260509004559 | 66 | 257 | 0.9 | 7.8 | 0.00 | 0.00 | 0.00 | 35 | 1007.8 |
| 20260509003101 | 65 | 266 | 2.6 | 8.7 | 0.00 | 0.00 | 0.00 | 35 | 1007.9 |
| 20260509001551 | 66 | 248 | 2.6 | 7.0 | 0.00 | 0.00 | 0.00 | 36 | 1008.0 |
| 20260509000047 | 66 | 199 | 0.9 | 9.6 | 0.00 | 0.00 | 0.00 | 33 | 1008.3 |
| 20260508234543 | 66 | 241 | 2.6 | 5.2 | 0.00 | 0.00 | 0.00 | 31 | 1008.5 |
| 20260508233044 | 67 | 276 | 0.9 | 6.1 | 0.00 | 0.00 | 0.00 | 31 | 1008.7 |
| 20260508231542 | 65 | 215 | 3.5 | 9.6 | 0.00 | 0.00 | 0.00 | 32 | 1008.8 |
| 20260508230050 | 65 | 245 | 5.2 | 9.6 | 0.00 | 0.00 | 0.00 | 32 | 1009.0 |
| 20260508224554 | 66 | 264 | 1.7 | 10.4 | 0.00 | 0.00 | 0.00 | 28 | 1009.1 |
| 20260508223031 | 67 | 254 | 0.0 | 13.0 | 0.00 | 0.00 | 0.00 | 24 | 1009.4 |
| 20260508221519 | 67 | 264 | 1.7 | 12.2 | 0.00 | 0.00 | 0.00 | 22 | 1009.7 |
| 20260508220015 | 68 | 202 | 0.9 | 5.2 | 0.00 | 0.00 | 0.00 | 22 | 1009.8 |
| 20260508214512 | 67 | 271 | 0.9 | 14.8 | 0.00 | 0.00 | 0.00 | 26 | 1010.1 |
| 20260508213009 | 66 | 244 | 4.3 | 13.9 | 0.00 | 0.00 | 0.00 | 23 | 1010.3 |
| 20260508211506 | 66 | 281 | 3.5 | 13.9 | 0.00 | 0.00 | 0.00 | 22 | 1010.3 |
| 20260508210100 | 66 | 269 | 5.2 | 15.6 | 0.00 | 0.00 | 0.00 | 20 | 1010.3 |
| 20260508204556 | 65 | 302 | 4.3 | 10.4 | 0.00 | 0.00 | 0.00 | 19 | 1010.5 |
| 20260508203109 | 65 | 267 | 7.8 | 18.2 | 0.00 | 0.00 | 0.00 | 17 | 1010.8 |
| 20260508201550 | 65 | 258 | 6.1 | 13.0 | 0.00 | 0.00 | 0.00 | 16 | 1010.8 |
| 20260508200052 | 65 | 271 | 7.0 | 14.8 | 0.00 | 0.00 | 0.00 | 17 | 1010.8 |
| 20260508194542 | 66 | 269 | 0.9 | 11.3 | 0.00 | 0.00 | 0.00 | 19 | 1010.9 |
| 20260508193111 | 64 | 211 | 2.6 | 10.4 | 0.00 | 0.00 | 0.00 | 17 | 1011.2 |
| 20260508191533 | 63 | 293 | 5.2 | 15.6 | 0.00 | 0.00 | 0.00 | 17 | 1011.3 |
| 20260508190035 | 64 | 241 | 3.5 | 12.2 | 0.00 | 0.00 | 0.00 | 14 | 1011.3 |
| 20260508184524 | 63 | 289 | 6.1 | 13.0 | 0.00 | 0.00 | 0.00 | 14 | 1011.5 |
| 20260508183022 | 64 | 195 | 5.2 | 12.2 | 0.00 | 0.00 | 0.00 | 12 | 1011.4 |
| 20260508181522 | 63 | 267 | 4.3 | 13.9 | 0.00 | 0.00 | 0.00 | 10 | 1011.5 |
| 20260508180014 | 64 | 335 | 4.3 | 13.9 | 0.00 | 0.00 | 0.00 | 8 | 1011.3 |
| 20260508174509 | 65 | 319 | 2.6 | 7.0 | 0.00 | 0.00 | 0.00 | 8 | 1011.3 |
| 20260508173008 | 64 | 283 | 1.7 | 9.6 | 0.00 | 0.00 | 0.00 | 10 | 1011.4 |
| 20260508171506 | 65 | 276 | 0.9 | 7.0 | 0.00 | 0.00 | 0.00 | 10 | 1011.2 |
| 20260508170059 | 65 | 203 | 1.7 | 4.3 | 0.00 | 0.00 | 0.00 | 10 | 1011.1 |
| 20260508164602 | 64 | 206 | 3.5 | 9.6 | 0.00 | 0.00 | 0.00 | 8 | 1011.1 |
| 20260508163056 | 63 | 205 | 0.9 | 6.1 | 0.00 | 0.00 | 0.00 | 9 | 1011.2 |
| 20260508161554 | 63 | 272 | 2.6 | 11.3 | 0.00 | 0.00 | 0.00 | 8 | 1011.1 |
| 20260508160042 | 63 | 209 | 1.7 | 7.8 | 0.00 | 0.00 | 0.00 | 9 | 1011.0 |
| 20260508154539 | 62 | 277 | 1.7 | 8.7 | 0.00 | 0.00 | 0.00 | 9 | 1010.9 |
| 20260508153040 | 62 | 230 | 2.6 | 7.0 | 0.00 | 0.00 | 0.00 | 8 | 1011.0 |
| 20260508151540 | 61 | 298 | 0.9 | 4.3 | 0.00 | 0.00 | 0.00 | 10 | 1010.8 |
| 20260508150029 | 59 | 237 | 0.9 | 7.8 | 0.00 | 0.00 | 0.00 | 10 | 1010.7 |
| 20260508144523 | 57 | 281 | 0.0 | 7.0 | 0.00 | 0.00 | 0.00 | 13 | 1010.7 |
| 20260508143021 | 55 | 284 | 0.9 | 7.8 | 0.00 | 0.00 | 0.00 | 20 | 1010.6 |
| 20260508141518 | 54 | 280 | 0.9 | 10.4 | 0.00 | 0.00 | 0.00 | 20 | 1010.3 |
| 20260508140015 | 52 | 273 | 5.2 | 11.3 | 0.00 | 0.00 | 0.00 | 23 | 1010.0 |
| 20260508134514 | 51 | 218 | 3.5 | 8.7 | 0.00 | 0.00 | 0.00 | 20 | 1009.5 |
| 20260508133011 | 0 | 0.0 | 0.0 | 0.00 | 0.00 | 0.00 | 1009.4 | ||
| 20260508131506 | 0 | 0.0 | 0.0 | 0.00 | 0.00 | 0.00 | 1009.6 | ||
| 20260508130002 | 0 | 0.0 | 0.0 | 0.00 | 0.00 | 0.00 | 1009.8 | ||
| 20260508124558 | 0 | 0.0 | 0.0 | 0.00 | 0.00 | 0.00 | 1010.1 | ||
| 20260508123102 | 0 | 0.0 | 0.0 | 0.00 | 0.00 | 0.00 | 1010.5 | ||
| 20260508121558 | 49 | 259 | 4.3 | 9.6 | 0.00 | 0.00 | 0.00 | 30 | 1010.6 |
| 20260508120053 | 49 | 275 | 3.5 | 11.3 | 0.00 | 0.00 | 0.00 | 32 | 1010.6 |
| 20260508114548 | 49 | 293 | 4.3 | 10.4 | 0.00 | 0.00 | 0.00 | 36 | 1010.8 |
| 20260508113056 | 49 | 265 | 4.3 | 9.6 | 0.00 | 0.00 | 0.00 | 33 | 1010.9 |
| 20260508111554 | 48 | 272 | 4.3 | 9.6 | 0.00 | 0.00 | 0.00 | 35 | 1011.0 |
| 20260508110045 | 48 | 279 | 3.5 | 8.7 | 0.00 | 0.00 | 0.00 | 37 | 1011.1 |
| 20260508104543 | 49 | 277 | 5.2 | 13.0 | 0.00 | 0.00 | 0.00 | 38 | 1011.3 |
| 20260508103043 | 49 | 269 | 6.1 | 13.0 | 0.00 | 0.00 | 0.00 | 39 | 1011.4 |
| 20260508101546 | 49 | 275 | 4.3 | 11.3 | 0.00 | 0.00 | 0.00 | 34 | 1011.6 |
| 20260508100039 | 49 | 238 | 5.2 | 13.0 | 0.00 | 0.00 | 0.00 | 30 | 1011.7 |
| 20260508094537 | 49 | 293 | 6.1 | 11.3 | 0.00 | 0.00 | 0.00 | 28 | 1011.7 |
| 20260508093035 | 50 | 287 | 5.2 | 11.3 | 0.00 | 0.00 | 0.00 | 32 | 1011.8 |
| 20260508091556 | 50 | 276 | 6.1 | 13.0 | 0.00 | 0.00 | 0.00 | 30 | 1011.8 |
| 20260508090030 | 51 | 287 | 7.0 | 15.6 | 0.00 | 0.00 | 0.00 | 38 | 1011.9 |
| 20260508084528 | 50 | 271 | 6.1 | 11.3 | 0.00 | 0.00 | 0.00 | 27 | 1011.9 |
| 20260508083032 | 51 | 239 | 3.5 | 11.3 | 0.00 | 0.00 | 0.00 | 25 | 1012.1 |
| 20260508081523 | 51 | 269 | 6.1 | 15.6 | 0.00 | 0.00 | 0.00 | 28 | 1012.3 |
| 20260508080020 | 51 | 267 | 3.5 | 11.3 | 0.00 | 0.00 | 0.00 | 28 | 1012.3 |
| 20260508074519 | 51 | 261 | 5.2 | 12.2 | 0.00 | 0.00 | 0.00 | 32 | 1012.5 |
| 20260508073054 | 53 | 303 | 3.5 | 11.3 | 0.00 | 0.00 | 0.00 | 23 | 1012.5 |
| 20260508071555 | 53 | 211 | 4.3 | 13.9 | 0.00 | 0.00 | 0.00 | 31 | 1012.5 |
| 20260508070058 | 51 | 236 | 4.3 | 9.6 | 0.00 | 0.00 | 0.00 | 42 | 1012.3 |
| 20260508064514 | 52 | 236 | 5.2 | 13.0 | 0.00 | 0.00 | 0.00 | 50 | 1012.4 |
| 20260508063007 | 52 | 278 | 3.5 | 12.2 | 0.00 | 0.00 | 0.00 | 51 | 1012.4 |
| 20260508061507 | 52 | 271 | 3.5 | 10.4 | 0.00 | 0.00 | 0.00 | 50 | 1012.4 |
| 20260508054507 | 52 | 267 | 5.2 | 14.8 | 0.00 | 0.00 | 0.00 | 54 | 1012.8 |
| 20260508053007 | 52 | 284 | 4.3 | 11.3 | 0.00 | 0.00 | 0.00 | 55 | 1012.7 |
| 20260508051506 | 52 | 229 | 3.5 | 14.8 | 0.00 | 0.00 | 0.00 | 57 | 1012.8 |
| 20260508044508 | 52 | 319 | 3.5 | 11.3 | 0.00 | 0.00 | 0.00 | 62 | 1012.9 |
| 20260508043007 | 53 | 287 | 4.3 | 9.6 | 0.00 | 0.00 | 0.00 | 59 | 1012.8 |
| 20260508041511 | 53 | 240 | 3.5 | 9.6 | 0.00 | 0.00 | 0.00 | 58 | 1012.9 |